Simultaneous Nadir Overpasses (SNOs) Predictions

Prediction of SNOs between GOES-16 and METOP-B Satellite Orbit:

Table of predicted SNOs for the next 14.0 days since TLE Epoch: 1/21/2023
Index Date Time (GOES-16) GOES-16 Lat,Lon METOP-B Lat,Lon Distance(km) Time Diff (sec)
1 01/22/2023 02:23:03 0.01, -75.19 0.35, -73.57 183.82 80
2 01/23/2023 14:44:34 0.01, -75.21 0.63, -78.13 332.60 80
3 01/24/2023 14:21:14 0.01, -75.22 -0.46, -73.13 237.80 80
4 01/26/2023 02:42:53 -0.01, -75.22 -0.58, -77.72 285.05 80
5 01/27/2023 02:19:33 -0.01, -75.23 0.57, -72.73 285.79 80
6 01/28/2023 14:41:04 0.01, -75.27 0.44, -77.29 229.21 80
7 01/29/2023 14:17:43 0.01, -75.29 -0.66, -72.28 341.91 80
8 01/31/2023 02:39:23 -0.01, -75.30 -0.36, -76.88 180.05 80
9 02/01/2023 02:16:02 0.00, -75.31 0.74, -71.88 391.29 80
10 02/02/2023 14:34:52 -0.02, -75.36 0.25, -76.43 123.28 80
11 02/03/2023 14:16:52 -0.00, -75.38 -0.86, -71.43 448.94 80
